Weather History for Grafton, ND

Change the Weather History Date:

Wednesday, February 26, 2014

  Actual Average Record
Temperature  
Mean Temperature -2 °F -  
Max Temperature 10 °F 30 °F 62 °F (1958)
Min Temperature -16 °F 12 °F -21 °F (1962)
Degree Days  
Heating Degree Days 67    
Moisture  
Dew Point -7 °F    
Average Humidity 71    
Maximum Humidity 85    
Minimum Humidity 59    
Precipitation  
Precipitation 0.00 in - - ()
Sea Level Pressure  
Sea Level Pressure 29.90 in    
Wind  
Wind Speed 20 mph (NW)    
Max Wind Speed 30 mph    
Max Gust Speed 41 mph    
Visibility 8 miles    
Events Rain , Snow    
Averages and records for this station are not official NWS values.
T = Trace of Precipitation, MM = Missing Value Source: NWS Daily Summary

Daily Weather History Graph

Daily Weather History Graph

Search for Another Location

Airport:

Trip Planner

Search our weather history database for the weather conditions in past years. The results will help you decide how hot, cold, wet, or windy it might be!

Date:

Astronomy

Feb. 26, 2014 Rise Set
Actual Time 7:16 AM CST 6:08 PM CST
Civil Twilight 6:45 AM CST 6:40 PM CST
Nautical Twilight 6:08 AM CST 7:16 PM CST
Astronomical Twilight 5:32 AM CST 7:53 PM CST
Moon 5:14 AM CST (2/26) 3:15 PM CST (2/26)
Length of Visible Light 11h 55m
Length of Day
10h 52m
Waning Crescent, 10% of the Moon is Illuminated
Feb 26
Waning Crescent
Mar 1
New
Mar 8
First Quarter
Mar 16
Full
Mar 23
Last Quarter

Hourly Weather History & Observations

Time (CST) Temp. Windchill Dew Point Humidity Pressure Visibility Wind Dir Wind Speed Gust Speed Precip Events Conditions
12:15 AM -7.6 °F -31.7 °F -16.6 °F 65% 30.18 in 10.0 mi WSW 19.6 mph - N/A   Clear
12:35 AM -7.6 °F -29.8 °F -14.8 °F 71% 30.17 in 10.0 mi West 16.1 mph - N/A   Clear
12:55 AM -7.6 °F -30.5 °F -14.8 °F 71% 30.15 in 10.0 mi West 17.3 mph - N/A   Clear
1:15 AM -5.8 °F -26.0 °F -13.0 °F 71% 30.13 in 10.0 mi West 13.8 mph - N/A   Clear
1:35 AM -5.8 °F -24.4 °F -13.0 °F 71% 30.11 in 10.0 mi West 11.5 mph - N/A   Clear
1:55 AM -4.0 °F -23.0 °F -11.2 °F 71% 30.09 in 10.0 mi West 12.7 mph - N/A   Mostly Cloudy
2:15 AM -2.2 °F -26.2 °F -9.4 °F 71% 30.06 in 10.0 mi West 23.0 mph - N/A   Scattered Clouds
2:35 AM -0.4 °F -21.7 °F -9.4 °F 66% 30.04 in 10.0 mi West 18.4 mph - N/A   Partly Cloudy
2:55 AM -0.4 °F -21.7 °F -7.6 °F 72% 30.02 in 10.0 mi West 18.4 mph 24.2 mph N/A   Mostly Cloudy
3:15 AM -0.4 °F -23.3 °F -7.6 °F 72% 29.99 in 10.0 mi West 21.9 mph 29.9 mph N/A   Mostly Cloudy
3:35 AM -0.4 °F -23.8 °F -7.6 °F 72% 29.97 in 10.0 mi West 23.0 mph 28.8 mph N/A   Partly Cloudy
3:55 AM -0.4 °F -22.3 °F -7.6 °F 72% 29.94 in 10.0 mi West 19.6 mph 27.6 mph N/A   Clear
4:15 AM -0.4 °F -23.8 °F -7.6 °F 72% 29.91 in 10.0 mi West 23.0 mph 28.8 mph N/A   Clear
4:35 AM -0.4 °F -22.8 °F -7.6 °F 72% 29.88 in 10.0 mi West 20.7 mph 26.5 mph N/A   Clear
4:55 AM 1.4 °F -21.4 °F -5.8 °F 72% 29.84 in 10.0 mi West 23.0 mph 29.9 mph N/A   Clear
5:15 AM 1.4 °F -21.9 °F -5.8 °F 72% 29.82 in 10.0 mi West 24.2 mph 33.4 mph N/A   Clear
5:35 AM 3.2 °F -20.3 °F -4.0 °F 72% 29.80 in 10.0 mi West 26.5 mph 32.2 mph N/A   Clear
5:55 AM 3.2 °F -17.6 °F -4.0 °F 72% 29.81 in 10.0 mi West 19.6 mph 33.4 mph N/A   Partly Cloudy
6:15 AM 3.2 °F -17.1 °F -4.0 °F 72% 29.79 in 10.0 mi West 18.4 mph - N/A   Scattered Clouds
6:35 AM 5.0 °F -13.0 °F -4.0 °F 66% 29.77 in 10.0 mi West 15.0 mph - N/A   Scattered Clouds
6:55 AM 5.0 °F -15.2 °F -2.2 °F 72% 29.75 in 10.0 mi West 19.6 mph - N/A   Scattered Clouds
7:15 AM 6.8 °F -16.6 °F -2.2 °F 67% 29.70 in 10.0 mi West 29.9 mph 36.8 mph N/A   Mostly Cloudy
7:35 AM 6.8 °F -15.9 °F -0.4 °F 72% 29.68 in 10.0 mi West 27.6 mph 38.0 mph N/A   Overcast
7:55 AM 6.8 °F -13.8 °F -2.2 °F 67% 29.68 in 10.0 mi West 21.9 mph 33.4 mph N/A   Scattered Clouds
8:15 AM 6.8 °F -13.8 °F -0.4 °F 72% 29.68 in 10.0 mi WNW 21.9 mph 28.8 mph N/A   Clear
8:35 AM 6.8 °F -14.3 °F -0.4 °F 72% 29.67 in 10.0 mi WNW 23.0 mph 29.9 mph N/A   Partly Cloudy
8:55 AM 8.6 °F -12.7 °F -0.4 °F 67% 29.68 in 10.0 mi NW 25.3 mph 31.1 mph N/A   Clear
9:15 AM 8.6 °F -11.0 °F -0.4 °F 67% 29.68 in 10.0 mi WNW 20.7 mph 27.6 mph N/A   Scattered Clouds
9:35 AM 8.6 °F -11.4 °F -0.4 °F 67% 29.68 in 10.0 mi NW 21.9 mph 28.8 mph N/A   Mostly Cloudy
9:55 AM 8.6 °F -10.5 °F -0.4 °F 67% 29.68 in 10.0 mi NW 19.6 mph 33.4 mph N/A   Mostly Cloudy
10:15 AM 8.6 °F -12.7 °F -0.4 °F 67% 29.68 in 10.0 mi NW 25.3 mph 31.1 mph N/A   Mostly Cloudy
10:35 AM 8.6 °F -11.4 °F -0.4 °F 67% 29.68 in 9.0 mi NW 21.9 mph 29.9 mph N/A   Mostly Cloudy
10:55 AM 8.6 °F -10.5 °F 1.4 °F 73% 29.70 in 10.0 mi NNW 19.6 mph 31.1 mph N/A   Mostly Cloudy
11:15 AM 8.6 °F -12.3 °F 1.4 °F 73% 29.70 in 10.0 mi NNW 24.2 mph 32.2 mph N/A   Mostly Cloudy
11:35 AM 10.4 °F -8.2 °F 1.4 °F 67% 29.71 in 10.0 mi NNW 19.6 mph 28.8 mph N/A   Partly Cloudy
11:55 AM 10.4 °F -8.6 °F -0.4 °F 62% 29.71 in 10.0 mi NNW 20.7 mph 29.9 mph N/A   Clear
12:15 PM 10.4 °F -11.4 °F -0.4 °F 62% 29.72 in 10.0 mi NNW 28.8 mph 39.1 mph N/A   Partly Cloudy
12:35 PM 10.4 °F -11.7 °F 1.4 °F 67% 29.72 in 2.5 mi NNW 29.9 mph 36.8 mph N/A Snow Light Snow
12:55 PM 10.4 °F -10.3 °F 1.4 °F 67% 29.73 in 5.0 mi NNW 25.3 mph 32.2 mph N/A Snow Light Snow
1:15 PM 6.8 °F -15.5 °F 3.2 °F 85% 29.74 in 0.2 mi North 26.5 mph 31.1 mph N/A Snow Heavy Snow
1:35 PM 6.8 °F -15.9 °F 1.4 °F 79% 29.75 in 0.2 mi North 27.6 mph 35.7 mph N/A Rain Light Freezing Rain
1:55 PM 6.8 °F -16.2 °F 1.4 °F 79% 29.76 in 0.2 mi North 28.8 mph 36.8 mph N/A Rain Light Freezing Rain
2:15 PM 5.0 °F -18.3 °F 1.4 °F 85% 29.78 in 0.2 mi North 27.6 mph 33.4 mph N/A Rain Light Freezing Rain
2:35 PM 5.0 °F -18.3 °F -0.4 °F 78% 29.79 in 1.0 mi North 27.6 mph 36.8 mph N/A   Overcast
2:55 PM 5.0 °F -17.5 °F -0.4 °F 78% 29.81 in 1.0 mi North 25.3 mph 35.7 mph N/A   Overcast
3:15 PM 3.2 °F -20.3 °F -0.4 °F 85% 29.83 in 0.2 mi North 26.5 mph 33.4 mph N/A Rain Light Freezing Rain
3:35 PM 1.4 °F -22.3 °F -2.2 °F 85% 29.85 in 0.2 mi North 25.3 mph 38.0 mph N/A Rain Light Freezing Rain
3:55 PM 1.4 °F -23.5 °F -2.2 °F 85% 29.87 in 0.2 mi North 28.8 mph 41.4 mph N/A Rain Light Freezing Rain
4:15 PM 1.4 °F -23.2 °F -4.0 °F 78% 29.89 in 1.8 mi North 27.6 mph 35.7 mph N/A   Haze
4:35 PM -0.4 °F -25.6 °F -4.0 °F 85% 29.91 in 0.2 mi North 27.6 mph 38.0 mph N/A Rain Light Freezing Rain
4:55 PM -0.4 °F -26.0 °F -5.8 °F 78% 29.92 in 0.5 mi North 28.8 mph 38.0 mph N/A Rain Light Freezing Rain
5:15 PM -0.4 °F -26.4 °F -7.6 °F 72% 29.94 in 0.2 mi North 29.9 mph 39.1 mph N/A Rain Light Freezing Rain
5:35 PM -2.2 °F -26.2 °F -9.4 °F 71% 29.96 in 1.5 mi North 23.0 mph 33.4 mph N/A   Haze
5:55 PM -2.2 °F -26.2 °F -11.2 °F 66% 29.97 in 4.0 mi North 23.0 mph 33.4 mph N/A   Haze
6:15 PM -4.0 °F -27.0 °F -11.2 °F 71% 29.99 in 6.0 mi North 19.6 mph 27.6 mph N/A   Haze
6:35 PM -4.0 °F -27.0 °F -11.2 °F 71% 30.00 in 8.0 mi North 19.6 mph 27.6 mph N/A   Clear
6:55 PM -4.0 °F -27.0 °F - N/A% 30.01 in 7.0 mi North 19.6 mph 26.5 mph N/A   Clear
7:15 PM -4.0 °F -27.0 °F -13.0 °F 65% 30.03 in 9.0 mi North 19.6 mph 25.3 mph N/A   Clear
7:35 PM -5.8 °F -28.2 °F -13.0 °F 71% 30.04 in 10.0 mi North 17.3 mph - N/A   Clear
7:55 PM -7.6 °F -29.1 °F -13.0 °F 77% 30.05 in 10.0 mi North 15.0 mph 20.7 mph N/A   Clear
8:15 PM -7.6 °F -27.5 °F -13.0 °F 77% 30.06 in 10.0 mi North 12.7 mph - N/A   Clear
8:35 PM -7.6 °F -28.3 °F -14.8 °F 71% 30.07 in 10.0 mi NNW 13.8 mph - N/A   Clear
8:55 PM -9.4 °F -26.8 °F -16.6 °F 71% 30.08 in 10.0 mi North 9.2 mph - N/A   Partly Cloudy
9:15 PM -9.4 °F -27.9 °F -16.6 °F 71% 30.09 in 10.0 mi North 10.4 mph - N/A   Mostly Cloudy
9:35 PM -11.2 °F -29.0 °F -18.4 °F 70% 30.10 in 10.0 mi North 9.2 mph - N/A   Mostly Cloudy
9:55 PM -11.2 °F -32.1 °F -20.2 °F 64% 30.11 in 10.0 mi NNE 12.7 mph - N/A   Clear
10:15 PM -11.2 °F -30.1 °F -22.0 °F 59% 30.12 in 10.0 mi NNE 10.4 mph - N/A   Clear
10:35 PM -13.0 °F -28.6 °F -22.0 °F 64% 30.13 in 10.0 mi North 6.9 mph - N/A   Clear
10:55 PM -13.0 °F -28.6 °F -22.0 °F 64% 30.14 in 10.0 mi North 6.9 mph - N/A   Clear
11:15 PM -13.0 °F -27.0 °F -23.8 °F 59% 30.15 in 10.0 mi North 5.8 mph - N/A   Clear
11:35 PM -14.8 °F -29.1 °F -23.8 °F 64% 30.15 in 10.0 mi NNW 5.8 mph - N/A   Clear
11:55 PM -16.6 °F -29.3 °F -23.8 °F 70% 30.16 in 10.0 mi NNW 4.6 mph - N/A   Clear